EHI
9 8 7 9 17 26 29 26 22 18 15 13 9 4 2 3 3 2 1 2 7 17 30 37 35 34 32 27 21 17 12 6 3 1 0 0 0 0 0 0 0 0 0
9 8 8 10 16 23 26 23 20 18 15 12 8 6 5 4 3 1 0 1 5 14 26 35 33 30 27 23 19 15 12 8 6 3 1 0 0 0 0 0 0 0 0
9 9 8 9 14 19 21 21 19 18 16 11 7 7 7 6 4 2 1 1 3 8 17 26 26 22 19 16 12 10 10 10 9 6 2 0 0 0 0 0 0 0 0
8 7 5 5 9 13 15 16 16 16 14 9 6 5 5 5 3 2 1 1 1 3 8 14 15 13 13 11 8 7 8 10 9 7 4 1 0 0 0 0 0 0 0
5 4 2 2 3 5 6 8 9 9 8 6 4 3 3 3 2 1 1 0 0 0 2 4 7 8 8 7 7 6 7 7 7 5 3 2 1 0 0 0 0 0 0
4 3 3 2 1 1 1 3 4 4 4 3 3 3 3 3 2 1 0 0 0 0 0 1 4 5 5 4 4 5 4 4 3 3 2 2 1 0 0 0 0 0 0
1 2 2 1 0 0 0 1 3 3 3 3 3 3 3 3 3 1 0 0 0 0 0 0 1 3 3 3 2 2 3 2 1 2 2 2 2 2 1 0 0 0 0
0 1 1 0 0 0 0 1 2 3 2 1 1 2 3 3 2 1 0 0 0 0 0 0 1 2 2 2 1 1 2 2 2 3 3 3 4 5 3 1 0 0 0
0 0 0 0 0 0 0 0 1 2 1 0 0 1 2 2 1 1 0 0 0 0 0 1 1 1 1 1 1 1 1 2 4 4 3 4 7 8 5 2 0 0 0
0 0 0 0 0 0 0 0 0 0 0 0 0 0 1 1 0 0 0 0 0 0 0 0 0 0 0 0 0 0 0 1 2 3 4 7 9 9 6 3 2 1 1
0 0 0 0 0 0 0 0 0 0 0 0 0 0 0 0 0 0 0 0 0 0 0 0 0 0 0 0 0 0 0 0 1 2 4 7 9 9 6 4 3 1 0
0 0 0 0 0 0 0 0 0 0 0 0 0 0 0 0 0 0 0 0 0 0 0 0 0 0 0 0 0 0 0 0 0 1 2 4 6 7 6 4 3 2 1
0 0 0 0 0 0 0 0 0 0 0 0 0 0 0 0 0 0 0 0 0 0 0 0 0 0 0 0 0 0 0 0 0 0 0 2 3 4 4 3 3 2 2
0 0 0 0 0 0 0 0 0 0 0 0 0 0 0 0 0 0 0 0 0 0 0 0 0 0 0 0 0 0 0 0 0 0 0 1 2 1 1 1 2 1 1
0 0 0 0 0 0 0 0 0 0 0 0 0 0 0 0 0 0 0 0 0 0 0 0 0 0 0 0 0 0 0 0 0 0 0 1 1 0 0 0 0 0 0
0 0 0 0 0 0 0 0 0 0 0 0 0 0 0 0 0 0 0 0 0 0 0 0 0 0 0 0 0 0 0 0 0 0 0 0 0 0 0 0 0 0 0
0 0 0 0 0 0 0 0 0 0 0 0 0 0 0 0 0 0 0 0 0 0 0 0 0 0 0 0 0 0 0 0 0 0 0 0 0 0 0 0 0 0 0
0 0 0 0 0 0 0 0 0 0 0 0 0 0 0 0 0 0 0 0 0 0 0 0 0 0 0 0 0 0 0 0 0 0 0 0 0 0 0 0 0 0 0
0 0 0 0 0 0 0 0 0 0 0 0 0 0 0 0 0 0 0 0 0 0 0 0 0 0 0 0 0 0 0 0 0 0 0 0 0 0 0 0 0 0 0
0 0 0 0 0 0 0 0 0 0 0 0 0 0 0 0 0 0 0 0 0 0 0 0 0 0 0 0 0 0 0 0 0 0 0 0 0 0 0 0 0 0 0
0 0 0 0 0 0 0 0 0 0 0 0 0 0 0 0 0 0 0 0 0 0 0 0 0 0 0 0 0 0 0 0 0 0 0 0 0 0 0 0 0 0 0
0 0 0 0 0 0 0 0 0 0 0 0 0 0 0 0 0 0 0 0 0 0 0 0 0 0 0 0 0 0 0 0 0 0 0 0 0 0 0 0 0 0 0
0 0 0 0 0 0 0 0 0 0 0 0 0 0 0 0 0 0 0 0 0 0 0 0 0 0 0 0 0 0 0 0 0 0 0 0 0 0 0 0 0 0 0
0 0 0 0 0 0 0 0 0 0 0 0 0 0 0 0 0 0 0 0 0 0 0 0 0 0 0 0 0 0 0 0 0 0 0 0 0 0 0 0 0 0 0
0 0 0 0 0 0 0 0 0 0 0 0 0 0 0 0 0 0 0 0 0 0 0 0 0 0 0 0 0 0 0 0 0 0 0 0 0 0 0 0 0 0 0
0 0 0 0 0 0 0 0 0 0 0 0 0 0 0 0 0 0 0 0 0 0 0 0 0 0 0 0 0 0 0 0 0 0 0 0 0 0 0 0 0 0 0
Wind_Speed
4 4 3 3 4 4 5 5 6 7 8 8 9 10 9 9 8 6 5 11 14 18 20 20 20 20 20 20 19 19 18 18 17 16 15 15 15 14 14 14 13 12 12
2 2 2 2 3 3 4 5 7 7 7 7 8 9 9 9 9 8 7 8 14 17 19 20 21 20 21 21 20 19 19 18 17 17 16 15 15 15 15 14 14 13 13
2 2 2 2 2 3 4 4 6 5 6 6 8 8 7 8 8 9 8 6 7 14 18 20 20 20 21 21 21 20 19 19 18 18 17 17 16 15 15 15 15 14 14
1 1 1 2 2 2 3 3 4 4 5 5 5 6 6 6 9 8 7 7 6 7 12 19 20 19 20 21 22 21 20 19 19 19 18 18 17 16 16 16 16 15 14
0 1 2 2 2 2 2 4 3 4 4 5 5 5 5 5 6 8 8 9 8 7 7 12 19 20 20 21 21 21 21 20 20 20 20 19 19 18 17 17 16 16 16
1 1 1 2 1 1 2 3 3 3 4 4 5 5 4 5 5 6 8 8 8 9 9 9 9 13 18 18 19 20 21 21 20 20 21 20 20 19 18 17 17 17 17
1 1 1 1 1 1 3 3 2 3 3 2 2 2 3 5 6 6 6 6 8 9 9 9 7 6 7 16 17 18 20 21 20 20 21 20 20 19 19 18 18 17 17
2 2 1 2 2 2 2 3 2 2 2 2 2 1 2 3 4 7 6 7 8 6 8 11 9 8 7 6 10 18 19 20 20 20 20 20 20 19 19 19 19 18 18
3 2 2 2 2 1 2 3 2 2 2 2 3 3 3 3 2 2 5 6 6 6 6 7 9 9 9 7 8 14 19 18 18 20 20 19 19 18 19 19 19 19 19
3 2 2 2 2 1 2 2 2 2 1 1 1 2 3 2 2 2 2 2 5 6 6 7 8 8 9 7 9 12 16 16 17 18 19 19 19 18 19 19 20 20 19
4 3 2 2 2 2 3 2 2 2 2 2 1 1 1 2 2 2 2 2 2 3 5 5 5 6 8 8 7 10 15 16 16 17 17 17 18 18 19 19 20 20 20
3 4 3 3 3 2 3 3 3 3 2 2 2 1 1 1 2 2 3 2 3 3 3 4 5 6 6 7 10 13 15 15 15 15 15 15 16 17 18 19 20 20 20
3 4 4 3 3 3 4 3 2 3 3 2 3 2 2 2 1 2 2 2 2 2 2 3 4 5 6 6 7 13 13 15 15 14 14 13 13 14 15 16 17 18 18
4 4 4 4 4 4 4 3 2 3 3 3 4 3 2 2 2 1 2 1 1 2 2 4 2 4 4 5 7 12 8 13 14 13 13 12 12 12 12 13 13 13 14
4 4 4 4 5 5 5 4 3 4 3 4 4 4 3 3 2 2 2 2 2 2 3 3 2 2 3 4 7 6 6 11 13 13 12 12 11 10 10 11 11 11 11
4 4 5 5 5 5 5 4 4 5 5 4 4 4 4 3 3 2 2 2 3 3 3 3 3 2 3 3 5 5 5 10 12 12 11 11 10 10 10 10 10 10 9
5 5 6 6 6 6 6 5 6 6 6 6 5 5 6 4 3 3 3 2 3 3 4 3 2 1 2 3 4 3 3 4 5 10 10 10 10 10 9 9 9 9 9
6 6 6 6 6 6 6 6 7 6 6 7 7 6 6 5 5 4 3 4 3 3 4 4 2 2 2 4 5 5 4 4 4 7 9 9 8 9 9 8 8 8 8
6 6 6 6 7 7 6 7 7 7 7 7 7 7 7 6 6 5 5 4 4 4 3 3 3 2 1 3 4 4 4 3 3 5 7 6 7 7 8 8 8 7 7
6 7 7 7 7 7 7 7 7 8 8 7 7 8 8 8 8 7 6 6 5 4 3 3 3 3 2 3 4 4 3 2 3 3 4 4 5 6 6 6 7 7 7
7 7 7 7 7 7 7 7 7 8 7 7 7 7 8 10 11 8 6 6 6 5 4 4 4 3 3 4 5 4 5 4 2 3 3 2 3 3 2 4 5 5 6
7 7 7 7 8 8 10 12 9 7 6 7 7 7 7 8 11 12 12 12 11 8 6 5 4 4 5 4 4 5 6 5 4 4 4 3 3 3 2 1 3 5 6
7 7 8 7 8 10 14 14 14 8 7 7 8 7 7 7 8 6 9 11 11 12 11 7 6 6 6 6 6 6 7 6 4 6 5 3 3 2 2 2 3 4 5
7 7 8 8 8 10 13 14 14 9 7 8 8 9 8 7 7 7 6 5 6 7 8 7 6 6 5 6 8 7 6 5 4 3 4 4 3 2 2 2 3 4 5
7 7 7 8 9 10 13 13 12 6 6 8 8 8 8 7 10 11 7 6 5 5 7 9 9 8 8 8 7 6 6 6 4 3 2 4 4 3 2 2 3 5 5
7 7 8 7 8 9 10 11 10 5 6 6 5 6 10 10 10 11 8 7 7 6 4 4 5 6 6 7 9 7 7 7 5 4 4 5 5 4 3 2 2 2 3
Wind_Direction
215 217 218 214 217 215 210 211 215 217 216 215 216 217 219 219 217 216 222 223 214 207 203 200 202 203 200 198 198 198 199 199 197 196 196 196 194 191 189 187 184 182 180
222 223 225 224 221 222 221 217 220 219 222 218 220 221 220 215 215 215 218 225 220 211 207 206 208 209 208 204 202 201 202 202 200 199 199 199 198 195 193 192 190 188 186
209 218 239 242 235 228 228 226 228 223 225 223 223 224 222 214 210 213 215 217 219 215 211 212 214 213 213 210 207 205 205 204 202 201 202 201 201 198 196 196 195 193 191
183 222 248 252 252 245 236 237 231 227 226 224 223 226 223 217 213 210 210 211 210 213 215 218 218 216 217 215 213 210 208 206 205 204 204 204 203 202 200 199 198 196 195
281 215 249 254 256 262 258 256 246 235 231 227 226 227 224 222 218 215 212 210 208 208 207 220 221 219 219 219 218 215 212 209 207 207 207 207 206 205 203 202 201 199 199
305 248 255 275 267 276 274 262 255 249 233 227 238 239 231 228 219 215 216 212 210 209 209 216 219 222 219 218 219 219 216 213 210 209 209 210 209 207 206 204 204 203 202
296 279 273 290 283 265 268 265 253 259 249 218 218 267 264 236 227 223 216 210 212 209 205 211 212 210 215 219 221 222 220 217 213 211 210 210 210 208 207 206 205 206 205
296 289 260 247 246 258 273 273 255 250 251 206 186 201 265 280 248 230 216 212 211 204 207 211 210 206 205 203 218 222 222 221 217 214 212 211 210 207 206 208 207 207 207
286 286 263 247 245 234 252 247 228 222 241 246 199 185 191 226 265 257 222 214 202 198 206 207 207 207 206 202 206 217 220 219 218 217 214 212 210 207 207 209 210 209 209
292 278 262 251 251 239 240 246 213 205 213 265 251 216 211 191 200 290 291 235 209 207 209 211 208 207 205 203 206 207 213 215 216 218 216 212 209 207 208 210 212 211 210
294 286 263 251 248 239 234 237 244 226 209 219 226 219 248 239 202 201 260 273 252 229 215 209 205 207 205 202 201 206 207 209 212 215 215 212 209 208 209 211 214 215 214
291 294 269 247 244 241 235 231 229 234 231 224 230 216 201 224 216 204 226 235 237 244 228 214 208 206 203 199 206 204 200 203 206 207 208 209 208 208 209 212 216 218 218
274 276 270 248 245 245 243 233 227 233 226 222 224 224 212 224 230 206 209 236 245 262 252 234 217 206 205 194 202 200 199 197 200 201 203 205 206 205 207 211 216 218 220
259 266 267 255 250 246 247 237 230 233 225 222 229 218 215 223 221 206 200 196 248 271 261 252 241 212 207 192 197 192 194 195 196 196 198 199 201 203 205 209 213 216 218
270 276 271 263 260 252 245 234 234 239 232 226 226 226 215 216 212 213 209 197 200 231 248 246 234 222 199 188 188 182 182 192 190 190 192 194 197 201 203 205 208 210 212
271 279 277 270 263 255 247 237 236 237 234 236 222 219 229 226 215 208 208 211 207 216 241 248 233 223 196 190 181 177 183 181 183 183 187 191 194 197 201 202 203 204 208
272 268 265 263 260 256 251 242 238 234 230 237 237 223 224 222 219 212 203 207 212 209 233 259 255 249 182 168 152 152 153 164 175 181 184 190 195 196 198 198 200 202 205
274 269 267 264 261 259 248 241 244 244 230 229 231 226 229 223 217 214 205 209 215 214 216 238 240 221 198 175 157 155 157 164 161 176 178 184 190 192 191 192 196 198 202
279 276 269 263 260 258 249 241 240 243 236 229 224 218 221 217 218 213 207 210 214 221 211 221 224 204 190 169 148 146 145 139 156 160 169 180 186 186 185 187 191 194 198
277 275 269 263 259 257 253 247 241 241 241 237 228 221 216 209 213 210 208 207 206 208 209 217 218 200 184 170 153 154 156 152 153 146 140 141 155 164 172 177 184 189 194
281 272 269 267 262 259 255 246 238 242 237 240 239 230 224 219 215 210 209 199 195 198 200 211 212 196 186 170 174 168 164 156 153 152 138 141 135 133 148 163 171 178 184
278 274 269 265 263 268 268 261 245 238 231 230 236 237 238 232 223 219 218 206 193 191 196 203 207 202 201 181 172 170 160 162 174 170 152 153 141 135 129 139 169 173 177
278 277 272 266 263 262 262 260 252 238 226 225 228 228 236 232 213 210 219 216 208 204 196 191 202 204 200 185 170 173 173 166 168 165 146 148 140 135 110 96 133 152 160
278 276 274 269 265 267 264 257 253 243 231 227 225 222 219 226 220 202 203 206 209 212 208 203 203 208 203 186 178 174 166 144 121 147 143 142 141 124 103 84 104 127 137
284 279 276 272 267 269 264 258 249 234 230 230 227 224 214 215 220 207 195 197 208 227 225 215 206 204 198 186 168 150 150 152 152 166 155 133 132 118 108 97 90 111 121
283 286 286 279 271 270 268 261 245 223 225 229 231 228 221 216 213 207 196 191 199 213 210 206 209 212 205 194 183 174 165 164 154 165 169 138 138 136 133 121 119 116 108